Temp
-3 -3 -4 -3 -3 -3 -3 -2 -2 -1 2 2 1 -0 -1 -1 -1 -2 -2 -2 -2 -1 -1 -1 -1 -1 -0 -0 0 1 1 1 1 2 2 3 3 4
-4 -4 -4 -3 -3 -3 -3 -3 -3 -3 -2 -0 -0 -0 -1 -1 -1 -1 -2 -2 -1 -1 -1 -1 -1 -1 -1 -0 -0 0 1 1 1 1 2 2 3 3
-4 -4 -4 -4 -4 -4 -4 -3 -3 -3 -3 -2 -2 -2 -2 -2 -1 -1 -1 -1 -2 -1 -1 -1 -1 -1 -1 -1 -0 -0 0 0 1 1 1 1 2 2
-5 -4 -4 -4 -4 -4 -4 -4 -3 -3 -3 -3 -2 -3 -3 -2 -2 -2 -2 -1 -1 -1 -1 -1 -1 -1 -1 -1 -1 -0 -0 0 0 0 1 1 1 1
-5 -5 -5 -5 -5 -4 -4 -4 -3 -3 -3 -3 -4 -4 -4 -3 -2 -2 -1 -1 -1 -1 -1 -1 -1 -1 -1 -1 -1 -1 -0 -0 -0 -0 -0 0 0 1
-5 -5 -5 -5 -5 -5 -4 -4 -4 -4 -4 -4 -4 -4 -4 -3 -2 -2 -2 -1 -1 -0 -0 -1 -1 -1 -1 -1 -1 -1 -1 -1 -1 -0 -0 -0 -0 0
-5 -5 -5 -5 -5 -5 -5 -5 -4 -4 -4 -4 -4 -3 -3 -3 -2 -2 -1 -1 -1 -1 -1 -1 -1 -1 -1 -1 -1 -1 -1 -1 -1 -1 -1 -0 -0 -0
-6 -6 -5 -5 -5 -5 -5 -5 -5 -5 -5 -4 -3 -3 -3 -3 -2 -2 -2 -2 -2 -1 -1 -1 -1 -1 -1 -0 -1 -0 -1 -1 -1 -1 -1 -1 -1 -1
-5 -5 -5 -4 -4 -5 -5 -4 -4 -4 -4 -4 -4 -4 -4 -4 -3 -3 -3 -2 -2 -2 -2 -2 -2 -2 -1 -1 -1 -0 -0 -0 -1 -1 -1 -1 -1 -1
-5 -5 -5 -5 -5 -5 -4 -4 -4 -4 -4 -4 -3 -3 -3 -3 -3 -3 -3 -3 -2 -2 -2 -2 -2 -2 -2 -1 -1 -1 -0 -1 -1 -1 -1 -1 -1 -1
-5 -5 -5 -5 -5 -4 -4 -4 -5 -5 -4 -4 -3 -3 -3 -3 -3 -3 -3 -4 -3 -3 -2 -2 -2 -2 -2 -2 -2 -2 -1 -1 -1 -1 -1 -1 -1 -1
-6 -5 -5 -4 -4 -4 -4 -5 -5 -5 -4 -4 -3 -4 -3 -4 -3 -3 -3 -4 -3 -3 -3 -3 -3 -3 -3 -3 -3 -3 -2 -2 -1 -1 -1 -1 -1 -1
-6 -5 -5 -4 -4 -4 -4 -4 -5 -4 -4 -5 -5 -5 -4 -4 -4 -4 -4 -4 -4 -4 -4 -4 -4 -4 -4 -4 -3 -3 -3 -3 -3 -2 -2 -1 -1 -1
-6 -6 -5 -5 -4 -4 -4 -4 -4 -5 -5 -5 -5 -4 -4 -4 -4 -4 -4 -4 -4 -4 -4 -5 -5 -5 -5 -5 -5 -5 -4 -4 -3 -3 -3 -3 -2 -2
-6 -6 -5 -4 -4 -4 -5 -5 -4 -5 -5 -5 -5 -5 -5 -5 -5 -5 -5 -6 -6 -6 -6 -6 -6 -6 -6 -6 -5 -5 -5 -4 -4 -4 -4 -3 -3 -2
-6 -5 -5 -5 -4 -4 -5 -5 -5 -6 -6 -6 -6 -6 -6 -7 -7 -7 -7 -7 -7 -6 -6 -6 -6 -6 -6 -6 -6 -5 -5 -5 -4 -4 -4 -3 -3 -3
-6 -6 -6 -5 -5 -5 -5 -5 -6 -6 -7 -7 -7 -7 -7 -7 -7 -7 -7 -7 -7 -7 -6 -6 -6 -6 -6 -6 -6 -6 -5 -5 -5 -4 -4 -4 -4 -3
-5 -5 -5 -5 -6 -6 -6 -6 -6 -7 -7 -7 -7 -7 -7 -8 -8 -7 -7 -7 -7 -7 -6 -6 -6 -6 -6 -6 -6 -6 -6 -5 -5 -5 -4 -4 -4 -4
-6 -5 -6 -6 -6 -7 -7 -7 -7 -7 -8 -8 -8 -8 -8 -8 -8 -8 -8 -8 -7 -7 -7 -6 -6 -6 -6 -6 -5 -4 -4 -4 -4 -4 -4 -4 -4 -4
-7 -7 -7 -7 -7 -7 -8 -8 -8 -8 -8 -9 -9 -9 -9 -9 -9 -8 -8 -8 -8 -8 -7 -7 -7 -6 -6 -6 -6 -5 -5 -5 -5 -5 -5 -5 -4 -4
-8 -8 -8 -8 -8 -8 -8 -8 -9 -9 -9 -9 -9 -9 -9 -9 -9 -9 -9 -8 -8 -8 -7 -7 -7 -6 -6 -6 -6 -6 -5 -5 -5 -5 -5 -5 -5 -5
-9 -9 -9 -9 -9 -9 -9 -9 -9 -9 -9 -9 -9 -9 -9 -9 -9 -9 -9 -9 -9 -8 -8 -7 -7 -7 -7 -7 -6 -6 -6 -6 -6 -5 -5 -5 -5 -5
-10 -10 -10 -10 -10 -10 -9 -9 -9 -9 -9 -9 -9 -9 -10 -10 -10 -10 -9 -9 -9 -9 -8 -8 -8 -8 -8 -7 -7 -6 -6 -6 -6 -6 -6 -5 -5 -5
Height
855 855 855 855 856 856 857 858 858 855 851 850 852 852 853 853 853 851 851 850 849 848 847 847 847 847 846 844 843 844 843 842 842 842 842 840 841 840
854 855 855 855 855 855 856 857 858 858 857 853 853 853 852 852 851 850 848 847 846 846 845 844 844 844 843 841 840 841 841 839 838 838 837 837 838 837
852 852 853 854 854 855 856 856 856 856 855 852 852 852 852 850 849 849 847 845 843 842 841 841 840 840 839 838 837 835 836 836 834 833 834 834 834 834
851 851 851 852 852 853 854 854 854 854 853 851 850 850 850 848 845 844 843 842 840 838 837 836 835 835 834 833 832 832 832 832 829 829 830 830 829 829
849 849 849 849 850 850 850 851 851 851 850 850 847 847 846 845 842 840 839 839 837 836 834 833 831 830 829 828 827 827 826 826 825 826 826 826 826 826
846 846 846 847 847 847 847 847 847 847 847 847 845 843 842 840 839 837 835 834 833 832 831 830 828 826 825 823 822 822 821 821 820 821 821 821 821 820
842 842 843 843 843 843 844 843 843 844 843 841 839 838 836 834 833 832 830 830 829 829 827 825 823 822 821 820 819 817 816 816 815 814 814 814 814 814
837 837 838 838 838 838 837 837 838 838 837 835 834 832 830 829 828 827 826 825 824 825 823 820 820 817 817 816 815 814 813 812 811 809 808 808 807 807
832 832 832 832 832 832 832 832 832 831 830 828 826 826 825 824 824 823 821 820 818 818 818 815 815 812 811 809 808 807 806 806 806 805 804 802 801 800
826 826 826 826 827 827 827 826 826 826 824 823 822 820 820 819 819 817 816 814 812 812 812 807 807 804 804 802 802 801 799 799 799 798 797 796 795 794
821 821 821 821 821 822 821 821 820 819 818 817 815 813 813 812 812 811 809 808 804 804 805 803 801 799 798 795 794 793 792 791 790 790 789 788 788 787
817 816 816 816 816 816 816 815 814 812 811 809 808 806 806 805 805 804 803 801 799 796 799 799 796 796 790 788 785 783 784 783 783 782 781 781 780 778
811 810 810 810 810 810 809 808 807 806 805 803 801 801 799 798 798 796 796 795 793 790 792 792 790 788 786 781 780 780 779 777 776 774 773 772 771 771
806 805 805 805 804 804 803 802 801 800 800 798 797 795 794 792 791 791 790 789 787 785 786 786 782 782 779 775 773 774 773 772 770 767 765 763 762 761
800 799 799 798 798 797 797 795 796 795 795 793 791 789 788 787 786 784 783 782 780 778 778 778 776 775 773 768 766 767 765 764 762 760 757 755 752 751
794 793 792 792 792 791 791 791 791 790 789 788 786 784 783 782 780 780 778 777 774 771 770 769 768 767 764 762 761 758 758 755 753 752 749 745 742 741
789 788 786 785 785 786 786 786 785 785 784 782 781 779 778 777 775 774 773 771 769 766 763 762 760 758 756 755 752 750 749 746 744 742 739 734 731 731
781 780 779 779 780 781 781 781 781 780 779 778 776 774 773 771 770 768 767 766 763 760 757 755 753 751 748 745 745 742 740 738 736 733 731 726 720 721
775 774 775 776 776 777 777 777 776 775 774 772 771 769 768 766 765 762 761 760 756 754 751 749 747 745 740 735 735 735 732 730 728 725 723 719 712 710
771 772 772 772 772 772 772 771 770 769 768 766 764 762 761 760 758 756 754 753 750 747 744 742 740 737 734 730 727 724 724 723 721 716 713 708 703 701
768 768 768 768 767 767 766 765 764 763 761 759 757 756 754 753 751 749 747 745 742 739 735 732 730 729 726 723 718 715 713 711 710 707 703 700 695 691
765 765 764 763 762 761 760 759 757 756 754 752 750 748 747 745 743 741 739 737 735 732 728 724 722 720 718 715 709 706 703 700 696 692 691 691 687 679
761 760 759 758 756 755 754 752 750 747 746 744 742 740 739 737 735 733 730 728 726 723 720 716 713 711 708 705 701 696 693 690 686 681 677 676 672 668
Wind_Speed
4 4 4 4 4 4 5 5 5 3 4 1 1 1 4 7 9 11 10 9 11 11 11 11 12 13 12 11 11 11 11 11 11 11 12 12 12 13
5 5 5 5 6 6 7 8 8 9 5 6 7 8 10 13 14 14 14 14 14 12 12 11 12 13 13 14 14 14 13 13 12 12 12 12 13 13
6 6 7 7 8 8 9 10 11 12 12 16 15 14 15 15 14 14 14 15 17 14 14 14 14 15 15 15 15 15 16 16 15 14 14 14 14 15
8 8 8 8 10 11 11 12 13 14 15 15 16 15 16 16 16 16 15 14 16 16 17 18 19 19 18 17 17 17 18 18 17 16 17 17 17 17
9 9 9 9 11 11 12 13 14 15 15 14 16 16 17 17 17 16 16 15 16 17 17 18 19 19 19 18 19 19 19 18 18 18 18 17 17 17
10 10 10 10 12 11 12 13 14 15 14 14 15 18 17 17 15 17 17 17 17 14 16 17 19 21 21 21 21 22 22 21 21 21 21 20 19 19
10 10 12 12 13 14 15 15 14 16 16 16 17 17 18 16 16 17 16 15 17 17 18 17 19 18 18 18 18 20 20 20 20 21 22 22 22 22
13 12 13 13 15 16 17 19 22 25 24 20 19 19 22 21 19 19 17 16 13 15 19 19 18 17 19 20 21 22 23 24 23 24 24 24 25 25
14 14 14 14 14 15 17 18 20 21 24 24 21 19 18 17 18 17 16 17 18 18 21 22 21 24 25 26 26 26 24 24 25 26 27 27 28 28
16 16 16 17 18 18 19 19 19 20 20 22 23 25 25 23 23 25 26 28 26 23 22 24 24 25 21 23 24 25 26 29 30 30 29 28 28 29
17 17 17 19 19 19 19 21 22 23 24 23 25 26 26 27 28 29 26 25 24 18 17 21 19 21 24 29 32 32 31 30 29 29 29 28 27 27
17 18 19 21 21 21 22 22 22 25 24 23 23 21 21 22 25 29 27 24 22 22 20 20 20 22 23 26 31 30 17 16 18 20 21 25 27 27
18 18 18 18 19 19 21 21 22 24 21 16 17 19 20 19 20 22 26 23 23 24 25 25 24 23 23 25 23 24 30 30 25 25 26 26 27 28
22 21 20 20 21 21 21 22 22 16 16 18 19 21 22 22 22 22 22 24 26 28 26 26 22 22 22 23 23 25 25 26 27 27 27 28 28 28
22 22 22 22 22 23 23 18 15 15 17 18 19 20 20 21 22 22 24 25 29 30 28 29 29 27 27 28 26 24 26 25 26 30 30 28 29 28
21 23 22 21 22 20 17 15 15 15 15 16 17 18 19 19 19 19 21 22 24 25 26 27 29 29 29 29 27 27 25 22 22 26 28 29 29 30
19 20 22 22 18 12 13 14 15 16 16 17 18 18 19 18 19 19 20 21 21 21 22 23 24 28 31 31 27 26 25 27 27 29 28 29 29 28
23 19 15 9 8 11 12 14 14 16 17 18 19 19 19 19 19 19 19 19 21 22 22 22 21 21 23 26 27 28 28 27 28 28 28 27 29 28
19 12 7 8 11 12 13 14 16 17 18 18 19 20 21 21 22 21 20 20 21 22 23 23 23 21 10 10 21 23 26 26 27 25 26 28 31 31
11 8 9 11 12 14 15 16 17 18 19 20 21 21 22 22 21 21 21 21 22 22 23 24 24 24 21 15 21 27 25 27 27 29 29 32 35 36
9 11 12 13 15 16 18 18 20 20 21 21 22 22 22 22 23 23 23 25 26 23 21 22 26 27 30 27 19 23 29 30 31 32 31 30 29 30
11 13 14 16 18 19 19 20 22 22 23 23 24 23 23 23 23 23 23 23 23 24 26 28 28 27 25 24 22 26 28 32 34 36 36 37 34 15
15 15 17 18 20 20 21 22 23 24 23 24 25 25 24 24 24 24 25 25 26 26 27 27 27 26 26 26 29 27 28 29 32 33 34 33 38 42
Wind_Direction
281 268 262 267 269 270 274 276 280 305 312 278 336 309 290 302 308 309 302 295 294 298 298 300 300 299 300 302 304 305 307 308 306 304 302 305 302 304
256 263 262 263 260 258 258 258 255 259 269 294 302 299 299 297 301 301 301 296 297 291 288 288 291 292 292 294 296 299 299 302 302 303 305 304 302 300
245 253 257 258 256 254 251 249 250 251 261 277 285 291 292 292 293 293 293 295 297 291 288 285 284 284 283 284 286 291 294 296 299 300 300 300 299 299
252 252 253 253 252 253 253 253 251 251 255 269 280 287 288 289 290 291 290 290 289 289 288 287 286 285 283 282 282 281 283 286 291 296 299 299 299 298
252 254 255 253 256 253 252 254 254 256 256 265 276 280 282 284 285 284 282 286 285 284 286 287 287 287 286 283 283 281 278 279 281 284 288 291 292 290
250 250 253 251 254 258 258 257 258 261 264 262 265 273 274 278 280 279 276 278 277 283 284 285 286 286 285 281 279 278 276 276 278 277 279 281 284 287
250 249 253 254 257 260 260 260 262 262 259 257 257 259 266 264 265 272 272 278 280 284 287 289 292 283 276 278 280 283 284 282 280 279 279 280 279 281
260 261 262 265 266 266 266 262 258 248 247 251 256 257 257 262 271 270 274 270 270 277 288 289 290 285 284 280 276 275 275 277 278 279 280 280 278 278
264 264 266 267 269 266 267 268 266 265 264 263 265 270 289 288 286 277 278 275 275 279 285 281 277 277 277 276 275 274 274 273 274 274 276 278 278 277
271 273 272 271 268 266 266 269 271 274 273 272 271 274 275 277 271 270 272 274 274 274 271 270 271 268 272 274 276 275 275 278 276 273 272 272 273 272
271 268 267 267 269 270 270 270 269 269 270 270 271 269 268 269 268 270 266 265 265 264 273 275 277 280 284 283 278 275 275 275 274 272 272 272 272 273
268 266 264 262 262 261 263 266 263 266 272 272 273 275 276 279 272 269 268 268 275 281 278 274 286 290 286 277 277 272 267 283 288 277 266 275 275 273
265 264 262 263 266 267 268 268 266 276 281 288 282 277 273 273 278 271 262 260 265 268 274 277 280 279 272 273 270 277 288 289 283 280 277 274 270 267
257 261 266 268 271 272 272 272 276 276 291 286 278 271 270 269 268 268 266 264 264 266 273 273 273 272 275 279 278 282 276 275 277 276 277 278 272 267
258 263 267 270 270 272 278 274 276 284 285 278 275 275 275 276 277 276 275 274 273 273 270 268 267 270 269 271 276 274 278 277 275 274 275 273 269 266
263 262 262 265 266 268 276 278 281 278 277 278 279 280 282 282 280 277 277 274 271 271 268 267 267 262 262 262 267 273 271 267 274 277 277 276 274 269
261 257 259 259 253 249 262 268 269 270 269 271 273 276 277 278 275 274 270 270 266 267 269 268 267 262 260 259 263 264 269 270 273 274 276 276 275 273
268 270 276 231 239 259 268 272 271 269 268 268 268 269 268 270 274 275 274 274 274 274 273 272 273 277 271 263 258 261 263 264 268 270 271 269 276 279
275 250 238 255 255 259 265 269 270 270 270 268 265 267 269 270 272 273 273 273 273 273 272 272 271 268 272 274 275 262 257 263 269 267 266 265 270 276
252 267 261 259 260 261 263 268 269 272 271 267 264 262 262 263 265 263 264 266 268 272 275 271 266 263 262 267 273 272 267 267 267 268 270 269 269 275
263 261 259 263 265 267 268 268 269 270 274 268 264 262 262 261 262 263 264 267 268 266 264 265 265 271 275 283 279 274 274 272 264 262 266 266 269 276
265 264 266 270 271 270 270 272 273 274 271 265 264 262 261 259 261 264 265 264 263 263 265 270 275 276 272 265 267 271 274 276 277 275 267 262 264 268
270 269 271 273 275 273 271 270 270 270 266 264 262 260 260 257 258 261 261 260 261 263 263 268 272 272 267 265 266 269 271 271 271 274 274 269 265 265